Warning: Javascript must be enabled to use all the features on this page!


Page Loading - Please Wait...

Click to hideNews Bulletins

Peak Streamflow for the Nation

USGS 01443900 Yards Creek near Blairstown NJ

Warren County, New Jersey
Hydrologic Unit Code 02040105
Latitude  40°58'50", Longitude  75°02'21" NAD83
Drainage area 5.34  square miles
Gage datum 606.8 feet above NGVD29
Output formats
Table
Graph
Tab-separated file
peakfq (watstore) format
Reselect output format
Water
Year
Date Gage
Height
(feet)
Stream-
flow
(cfs)
1967 1967-03-03 2.98 98.05
1968 1968-01-14 3.141,2 1402,5
1969 1969-08-04 2.91 83.05
1970 1970-04-02 3.09 1245
1971 1971-03-11 2.731,2 54.05
1972 1972-02-23 3.13 1375
1973 1973-02-02 2.91 83.05
1974 1973-12-26 3.08 1215
1975 1974-12-17 2.86 74.05
1976 1976-01-28 3.10 1425
1977 1977-02-24 3.92 5835
1978 1978-01-10 3.15 1755
1979 1979-02-26 3.73 4685
1980 1980-03-24 3.04 1285
1981 1981-05-14 3.04 1285
1982 1982-01-05 3.43 3425
1983 1983-04-16 3.11 1545
1984 1983-12-15 3.15 1705
1985 1985-03-08 2.97 1155
1986 1985-11-27 3.37 3185
1987 1987-09-18 3.38 3255
1988 1988-01-08   1501,5
1989 1989-09-21 3.17 1965
1990 1989-10-20 3.29 2635
1991 1990-12-24 2.84 79.05
1992 1991-11-22 2.72 54.05
1993 1993-04-01 3.08 1565
1994 1994-03-28   1195
1995 1994-12-04   62.05
1996 1996-01-19 3.20 2105
1997 1996-12-02 3.06 1455
1998 1998-05-11 3.08 1525
1999 1999-09-16 2.97 1165
2000 2000-02-13 2.91 97.05
2001 2000-12-17   1415
2002 2002-06-07 2.82 62.05
2003 2003-08-09 3.40 2985
2004 2004-09-18 3.54 3865
2005 2005-04-02 3.202 1905
2006 2005-10-08 3.09 1465
2007 2007-03-08 3.23 2045
2008 2008-02-13 3.16 1695
2009 2008-12-12 3.07 1395
2010 2010-03-16 2.942 98.05
2011 2011-09-08 3.222 1995
2012 2011-10-02 2.94 98.05
2013 2013-01-31 2.952 1015
2014 2014-04-30 3.052 1325
2015 2015-06-23 3.052 1325
2016 2016-02-16 3.14 1315
2017 2017-04-06 3.09 1155
2018 2018-05-19   67.95
2019 2018-11-06   86.75
?
  Peak Gage-Height Qualification Codes.
?
  Peak Streamflow Qualification Codes.